RH
82 76 87 88 85 83 79 79 89 92 94 99 98 99 94 92 89 92 92 84 83 94 95 96 95 96 96 90 90 90 89 87 88 83 78 77 83 90 79 74 77 82 77
88 76 87 88 84 82 80 87 90 92 91 97 97 98 95 92 88 93 93 92 93 95 96 97 97 98 92 93 92 92 92 87 81 78 75 77 76 74 80 68 88 81 80
89 78 90 85 87 85 83 87 88 88 88 94 96 99 95 92 88 96 91 90 95 95 98 98 100 97 96 92 91 91 91 88 81 77 72 77 81 85 86 91 87 84 93
92 80 77 85 86 88 86 84 87 88 89 92 93 93 94 92 91 90 86 96 95 96 96 98 97 97 95 93 93 92 94 79 73 68 62 76 77 78 81 80 84 82 84
92 80 75 85 83 87 87 85 85 83 82 82 82 77 81 93 95 87 93 93 89 92 87 81 82 95 96 95 94 95 79 80 72 66 72 75 67 80 95 80 78 82 81
90 81 81 83 83 83 84 85 88 87 80 79 71 81 88 88 87 88 93 90 88 90 85 75 86 96 94 96 95 88 79 77 69 65 68 75 81 79 91 85 89 95 98
96 86 83 84 83 81 81 82 85 88 81 77 82 81 77 86 85 85 89 89 87 86 89 89 85 81 89 94 94 77 74 74 63 64 67 78 78 85 81 88 88 87 88
99 99 87 86 86 82 81 83 84 85 85 74 77 82 77 86 73 90 89 87 86 83 79 90 85 80 86 91 69 71 73 76 67 66 72 73 78 80 85 86 83 84 87
84 94 97 90 91 86 83 80 83 85 84 83 76 76 81 80 80 91 87 84 84 81 70 89 88 80 78 74 66 68 74 77 66 67 70 76 78 84 79 88 87 84 88
38 57 82 97 94 89 89 83 79 84 84 84 84 87 86 79 80 87 86 85 84 79 66 83 85 73 68 59 65 69 70 73 69 70 65 77 80 86 86 86 90 90 92
32 37 46 72 92 96 89 84 84 81 85 84 84 87 84 85 95 94 92 91 85 77 64 69 73 73 69 60 64 66 69 65 64 67 67 83 88 88 92 93 93 94 95
31 32 34 42 64 90 94 88 85 84 81 81 92 96 90 86 87 94 95 92 88 80 67 69 75 75 74 77 78 69 63 64 64 69 72 87 90 92 95 97 97 96 95
32 32 33 34 38 68 97 95 93 85 84 82 86 92 88 92 92 95 98 99 94 91 83 82 92 82 69 61 66 61 60 61 64 69 78 88 93 94 94 90 87 87 78
33 32 33 35 34 40 71 94 95 91 89 84 86 87 94 97 99 89 91 92 91 84 72 73 70 71 71 64 62 59 60 61 63 68 81 90 93 96 94 86 76 77 76
35 34 32 34 34 35 43 70 94 94 89 91 94 92 97 100 99 91 95 96 92 75 69 71 65 66 68 64 64 62 60 61 64 68 70 80 91 91 94 95 83 80 78
30 31 31 31 33 35 37 48 66 97 95 92 92 96 96 97 98 99 99 92 82 80 65 67 58 62 65 64 65 66 66 62 63 67 68 79 78 84 89 96 96 97 96
26 28 30 31 33 35 35 38 46 67 99 98 93 96 99 99 99 100 99 94 82 80 67 61 59 60 63 64 63 64 66 66 66 69 70 70 80 75 79 88 92 86 90
34 33 32 32 30 32 33 39 38 49 69 97 97 95 100 99 99 99 99 89 82 79 76 64 60 60 61 64 62 64 66 69 68 69 72 74 78 78 80 75 80 86 90
34 35 36 36 35 34 36 37 41 45 57 77 99 96 99 99 98 97 97 88 83 82 77 66 57 56 59 62 62 64 66 67 71 71 72 74 76 82 79 82 74 75 76
40 37 38 37 36 35 36 39 41 42 55 64 89 99 97 98 99 97 99 94 86 84 76 66 55 55 56 59 63 65 67 69 71 74 72 74 75 82 85 84 83 81 75
46 47 44 41 40 38 34 34 36 36 43 54 75 96 98 99 100 100 98 98 93 86 78 68 57 55 58 59 62 63 68 71 73 73 75 73 72 80 81 82 84 85 85
56 52 51 50 44 40 37 32 32 32 36 42 63 79 98 98 100 100 100 100 98 86 81 74 60 56 56 64 62 56 59 61 69 69 67 68 69 75 81 84 88 90 89
56 62 62 55 53 45 41 40 40 42 41 46 62 81 90 100 98 100 100 100 100 94 88 79 67 60 58 63 63 56 56 58 51 64 70 72 77 82 85 89 88 92 91
51 58 67 66 58 54 46 44 44 44 49 50 56 71 85 94 99 100 100 100 99 100 95 88 75 67 59 63 72 67 62 59 64 68 74 75 80 82 88 88 80 92 90
56 61 71 70 63 60 50 47 44 42 44 44 49 59 74 87 99 100 100 100 100 100 99 93 84 74 66 61 74 72 74 74 70 64 68 87 92 93 92 91 92 96 96
61 66 76 74 71 65 57 51 48 42 43 45 50 56 65 82 92 99 100 99 100 100 100 97 90 90 75 67 66 70 73 75 74 78 75 82 80 86 94 95 96 96 97
Wind_Speed
2 12 18 18 19 17 16 15 17 18 18 17 16 14 15 14 14 14 14 14 13 12 12 13 16 20 18 18 17 17 18 19 19 21 22 20 19 19 18 18 17 20 18
6 13 18 19 18 16 16 16 17 18 17 16 15 15 15 14 15 14 13 11 14 14 15 19 20 20 18 17 18 18 19 20 22 21 21 20 20 18 17 17 18 18 16
4 14 17 19 19 17 17 17 17 17 17 15 15 14 15 14 14 14 13 13 15 17 19 20 19 18 18 18 18 18 18 21 21 20 19 16 17 17 17 18 19 18 18
5 14 17 20 20 19 18 18 18 19 18 16 14 15 15 15 14 15 13 14 16 18 18 17 18 18 18 20 18 17 17 20 19 16 14 15 15 15 15 14 16 16 16
8 15 16 19 21 20 19 18 18 17 17 16 15 15 17 16 15 16 13 15 17 18 16 14 17 18 18 19 18 16 18 19 18 15 15 14 14 12 14 15 15 16 16
7 14 17 21 21 21 19 19 18 17 17 16 17 17 16 16 15 18 14 16 18 18 15 13 15 16 17 17 17 17 18 18 14 13 14 14 14 13 13 14 14 15 18
1 11 15 21 22 22 21 19 18 18 16 18 18 20 18 18 17 19 17 17 18 17 15 14 14 14 16 16 16 17 17 16 11 13 12 13 12 13 12 14 13 12 11
4 2 10 17 18 19 20 20 19 17 16 18 19 20 20 19 20 18 18 18 17 15 14 14 13 13 13 14 15 16 15 16 12 12 13 12 12 12 12 12 11 11 13
12 1 1 10 16 16 17 19 20 19 18 18 19 19 19 20 20 19 19 18 17 14 14 14 14 13 12 13 15 15 14 16 11 12 12 11 11 11 11 9 11 10 10
13 12 8 3 9 14 17 18 20 20 19 19 19 19 19 20 21 21 19 18 16 15 15 16 14 13 13 14 15 15 14 13 10 10 10 11 10 10 10 9 9 9 9
11 13 11 9 2 7 13 18 20 22 23 21 20 20 19 18 18 19 18 18 16 16 15 15 14 13 12 13 14 14 13 8 9 8 8 12 10 9 9 8 8 8 8
12 11 9 9 7 3 9 13 20 23 23 22 20 20 18 17 17 16 17 18 16 15 16 14 14 13 11 11 11 13 7 9 8 8 8 11 9 9 8 8 7 7 7
13 13 9 8 7 6 5 9 16 23 24 24 22 21 20 19 18 17 15 16 14 15 13 13 13 12 9 11 12 10 10 10 8 7 9 11 9 8 7 7 6 5 5
17 16 14 10 10 6 5 6 12 17 23 26 26 25 23 20 18 17 16 19 16 16 15 15 14 13 11 10 10 10 10 9 8 8 8 11 9 8 7 6 6 5 4
20 20 19 15 13 10 8 6 9 15 20 23 25 26 24 22 21 19 18 19 18 17 17 17 15 14 13 11 10 9 9 9 9 8 8 11 10 8 7 6 5 5 4
24 25 21 20 17 14 12 10 8 11 17 23 24 26 26 24 23 21 20 21 20 18 18 18 17 16 14 13 12 10 9 9 9 8 8 9 11 10 8 7 7 6 6
22 22 21 20 18 17 16 15 12 11 15 20 25 25 28 28 25 24 21 21 21 20 19 18 18 17 16 14 13 12 11 10 9 9 8 8 9 11 11 10 9 8 8
25 26 25 21 20 19 19 18 17 16 14 21 24 26 28 28 27 26 24 23 22 21 21 20 20 19 18 16 14 13 12 11 11 10 9 9 9 8 11 12 12 13 11
23 24 24 23 23 22 21 20 20 19 18 17 25 29 29 31 30 28 27 25 23 23 22 21 21 20 19 17 16 14 13 13 13 12 11 11 11 11 10 12 13 13 12
21 22 23 23 24 23 23 21 21 21 21 20 22 31 29 32 32 32 28 25 24 23 22 22 22 21 20 18 15 14 13 13 14 14 14 13 13 12 12 12 12 12 13
20 22 23 24 25 24 24 23 23 25 24 23 22 26 30 31 33 37 29 31 27 26 26 25 24 24 22 20 16 14 13 13 14 16 15 15 14 14 14 14 13 12 11
21 22 24 25 26 28 27 26 24 24 26 25 24 24 29 34 37 39 33 33 33 28 28 27 26 22 22 23 17 15 7 13 18 17 16 16 16 14 15 15 14 15 12
22 23 25 26 26 27 28 25 25 24 22 24 26 25 30 33 39 38 38 37 36 31 28 30 30 28 25 24 25 13 5 7 12 16 20 18 17 16 15 15 16 15 14
23 22 24 26 27 26 26 27 28 26 25 27 27 27 27 34 37 40 38 39 39 37 29 30 32 30 26 25 24 26 13 5 6 5 13 19 18 18 16 18 19 17 17
23 22 21 22 24 25 26 29 30 30 27 27 28 27 29 32 34 37 41 40 38 36 34 31 31 31 31 28 26 23 23 13 10 6 4 7 15 17 17 18 19 16 17
20 19 19 20 23 24 26 27 31 30 28 25 27 27 27 28 32 31 31 34 37 40 35 41 40 35 33 30 25 26 24 21 17 9 5 5 11 12 19 18 19 17 17
Wind_Direction
207 176 183 176 176 174 166 161 161 165 162 152 150 145 140 137 138 132 135 137 140 141 146 129 129 117 108 108 108 106 104 102 99 97 94 92 94 91 85 88 83 84 77
293 182 187 182 177 171 164 161 163 164 162 154 156 149 146 145 144 137 136 131 132 130 124 123 119 115 111 111 109 107 107 104 104 100 95 99 95 88 89 88 88 85 81
231 183 183 185 179 173 165 161 160 164 162 162 159 153 153 152 149 144 136 131 127 127 123 118 116 115 115 114 112 111 109 109 106 103 96 95 96 89 93 83 88 87 82
234 182 183 190 184 177 176 168 168 169 169 170 168 163 163 160 157 153 145 140 136 133 131 127 124 119 118 116 115 114 117 114 106 98 100 97 97 91 98 93 84 80 81
212 186 186 192 191 184 179 180 178 180 179 178 176 168 158 159 159 159 155 150 145 140 140 129 122 121 120 121 120 119 120 118 102 105 106 101 100 96 89 97 94 89 92
195 190 190 193 192 192 186 186 185 186 187 181 170 160 167 167 165 162 165 159 151 147 144 137 125 127 126 125 125 126 126 116 103 103 106 103 101 99 92 92 86 93 86
318 196 192 197 198 197 190 192 193 192 191 184 176 169 174 171 173 174 169 164 158 155 149 139 135 133 130 130 132 132 132 116 111 108 106 104 106 103 103 96 95 88 94
29 129 201 203 203 202 199 195 199 195 194 190 184 180 178 178 175 177 174 169 167 165 160 155 148 140 136 136 137 136 134 120 113 112 112 110 111 110 105 103 103 94 91
43 277 263 207 213 213 212 206 200 200 201 194 190 184 183 187 187 180 178 176 176 173 160 158 154 149 145 145 142 141 139 124 121 119 116 117 116 119 115 119 109 104 101
35 42 39 27 220 217 220 216 209 202 204 202 195 189 189 187 186 187 183 184 184 180 168 161 162 156 152 151 150 147 144 122 127 122 121 133 127 130 127 123 119 113 108
11 23 22 24 321 236 222 221 216 212 205 205 202 198 190 188 192 191 184 195 191 184 175 171 169 166 159 156 157 154 137 144 140 132 129 139 137 139 139 132 127 125 119
335 346 359 10 2 264 233 219 217 216 215 207 199 199 197 197 193 189 187 196 197 191 182 178 180 175 154 161 163 160 158 156 151 144 147 148 150 150 150 146 137 133 131
303 306 317 328 335 344 259 222 219 217 215 214 206 197 199 199 193 185 187 187 189 192 185 180 181 178 184 176 175 180 173 166 161 155 165 157 162 163 157 150 146 143 140
286 286 292 296 298 305 305 245 221 216 215 215 211 205 199 193 190 191 187 190 189 194 193 192 192 194 193 189 186 186 181 179 171 166 180 168 177 176 170 165 163 166 167
278 281 279 280 276 275 277 272 237 222 215 212 208 204 200 195 195 195 191 189 194 197 198 197 199 197 194 193 192 191 193 192 186 181 184 189 186 194 188 188 188 191 200
272 275 275 272 268 264 261 258 256 238 224 215 212 207 203 201 200 197 197 197 201 201 199 201 197 199 198 197 200 200 202 202 203 201 195 204 200 203 205 206 215 220 229
265 268 272 269 263 252 249 246 245 241 232 220 214 211 205 203 199 198 202 202 205 205 201 201 203 199 200 200 204 205 203 208 209 210 214 211 219 217 218 213 222 236 245
262 261 264 262 254 249 243 242 238 238 235 229 218 214 209 206 205 204 204 206 207 207 205 203 201 205 205 202 203 206 211 212 215 218 222 225 224 227 237 232 225 232 243
260 259 258 255 252 249 245 240 237 236 233 232 222 216 212 209 207 208 207 207 205 207 206 205 205 206 210 211 209 208 213 219 219 223 226 234 232 229 235 247 240 243 247
258 254 251 249 246 243 243 241 239 235 232 229 228 219 216 211 209 209 207 207 205 206 207 204 207 204 210 214 214 217 220 219 219 224 229 233 239 239 236 238 248 249 250
257 255 249 245 241 237 234 234 234 232 231 230 228 226 220 215 212 206 208 211 204 207 208 204 204 205 204 209 209 218 229 232 228 226 227 228 234 239 239 239 241 243 250
261 254 251 246 240 235 233 234 233 232 232 231 229 226 223 220 209 207 208 207 203 210 211 206 202 203 208 202 202 210 218 223 234 230 227 227 229 233 236 236 235 239 235
264 257 254 248 241 234 230 230 229 229 231 227 226 224 222 219 217 212 208 209 207 206 209 206 201 202 202 204 208 197 210 233 218 221 224 225 225 227 232 234 235 234 230
270 263 260 248 242 236 228 224 223 223 222 224 226 227 223 222 217 214 215 210 207 210 207 205 202 202 203 205 207 217 232 228 210 199 222 225 225 228 226 229 233 232 232
274 263 258 244 240 236 226 221 221 224 228 227 225 224 224 225 222 216 212 211 210 207 208 205 201 206 205 209 203 211 220 229 236 257 214 213 228 233 229 228 232 231 232
269 259 246 235 238 233 225 222 222 223 224 225 224 224 222 220 223 220 212 211 211 213 209 216 219 213 210 210 214 216 213 213 221 214 233 217 225 225 229 229 230 229 228